Wind_Speed
5 5 9 7 13 11 10 10 8 11 10 10 9 6 5 7 9 10 13 13 15 17 18 15 17 18 18 16 15 13 12 10 9
13 11 4 6 10 11 14 17 17 14 12 11 9 9 7 6 7 11 12 14 18 17 21 24 20 17 19 19 17 16 14 13 12
5 11 15 14 12 10 14 16 23 18 18 14 13 13 9 8 9 11 12 14 15 17 22 18 22 21 17 19 18 17 16 15 13
5 1 4 10 14 15 4 14 17 24 20 15 19 17 14 12 10 13 15 15 14 17 22 30 30 16 20 18 18 18 18 16 14
0 6 9 11 10 14 18 17 13 20 25 19 18 22 20 18 16 13 16 17 17 16 21 24 25 27 12 15 21 21 20 17 16
5 10 12 17 15 12 15 20 24 24 16 23 23 22 23 23 22 19 17 16 19 18 17 22 23 22 19 20 23 22 20 18 18
9 14 17 18 22 21 16 14 17 23 30 27 21 24 25 25 24 22 19 19 17 20 17 20 24 24 24 25 24 22 21 22 20
15 17 19 18 19 21 20 18 16 18 21 28 33 28 29 30 29 25 25 22 22 18 20 18 24 24 23 22 23 23 21 21 22
8 18 18 17 19 22 26 26 23 20 19 20 24 33 35 31 34 34 29 28 25 23 21 21 21 27 27 26 25 24 22 25 23
13 7 15 24 26 28 30 29 29 27 26 25 24 23 27 36 35 36 33 31 31 28 25 24 24 25 27 27 26 24 21 22 21
11 15 23 30 32 31 33 34 35 33 31 29 28 27 28 27 31 39 38 34 34 33 31 29 28 27 27 30 29 27 27 24 24
20 25 32 35 38 37 36 35 35 35 32 34 33 32 30 30 31 29 36 41 39 37 37 35 31 30 30 30 30 29 29 28 27
30 33 34 35 34 35 36 36 38 40 39 35 33 33 38 37 32 32 29 38 45 42 40 39 36 33 32 30 30 29 29 29 29
25 28 29 29 31 33 36 38 40 41 42 41 35 34 35 40 41 31 33 35 39 48 47 44 41 37 34 33 31 29 29 28 29
26 28 28 30 33 35 38 39 41 40 39 39 39 33 32 37 39 37 40 37 33 49 60 43 47 43 37 36 33 32 31 30 32
31 32 36 35 36 38 40 38 36 41 36 37 38 36 32 33 34 37 39 37 36 39 44 65 37 45 41 37 34 33 33 33 33
34 35 35 37 38 35 31 30 35 37 36 35 34 37 32 28 33 35 38 36 33 37 36 42 63 30 35 40 39 34 32 31 32
34 36 35 34 32 35 36 35 37 35 35 35 34 36 35 28 28 31 33 35 34 35 36 35 36 36 45 40 42 35 29 33 36
33 33 31 31 32 37 39 38 36 35 35 35 34 35 34 30 28 28 31 30 31 30 32 30 30 34 42 41 40 39 33 34 33
30 27 28 31 37 39 38 36 35 34 32 31 31 32 31 29 27 24 28 24 26 27 26 28 32 35 29 32 51 71 28 43 43
Wind_Direction
107 340 8 187 264 307 300 278 288 305 313 321 335 326 307 258 246 254 251 238 212 213 213 214 229 218 212 218 224 228 234 234 234
138 125 142 286 280 279 273 282 287 280 294 294 307 323 309 283 262 251 261 253 237 231 208 208 214 223 218 215 223 229 229 235 237
164 189 187 185 185 235 270 275 293 303 279 272 276 295 308 301 275 260 254 254 249 239 221 220 226 219 236 221 227 231 231 234 238
109 24 280 241 217 197 190 263 261 288 296 277 271 275 282 285 285 268 259 256 251 249 236 238 243 215 217 209 228 230 232 232 239
147 326 326 311 290 255 215 198 218 273 283 289 272 268 269 275 275 273 270 260 252 247 250 251 249 249 228 212 228 223 229 228 231
322 312 307 296 304 298 278 259 242 220 251 278 278 263 264 265 270 269 273 271 264 246 244 241 237 239 232 234 227 222 225 224 230
300 301 297 293 295 299 292 288 279 266 238 240 248 272 266 268 263 265 266 272 264 262 254 230 232 235 229 238 229 224 222 223 232
288 302 293 288 286 290 295 293 287 281 274 254 246 244 254 246 267 258 259 262 270 265 259 249 230 236 234 224 230 234 229 233 234
281 307 297 291 295 295 290 293 289 282 280 282 272 258 256 252 240 254 253 256 260 265 263 257 248 234 236 240 235 233 239 233 235
288 327 296 298 305 301 293 285 285 284 280 276 281 282 270 257 256 252 248 249 252 257 259 259 255 247 237 237 235 235 238 227 236
256 268 292 307 308 300 291 286 284 281 279 277 276 275 276 276 262 255 253 247 248 250 253 254 255 252 248 240 234 236 245 246 242
265 280 296 299 296 295 296 295 293 288 281 277 273 270 267 268 269 263 254 250 246 248 248 249 251 252 248 246 240 236 239 246 248
285 290 290 290 294 293 293 292 293 292 293 287 279 273 266 265 261 262 266 260 252 247 245 246 247 248 249 248 246 239 234 237 244
288 290 294 295 295 296 296 294 290 292 294 292 284 278 265 257 262 264 259 258 256 257 252 242 243 244 245 246 245 241 234 233 234
300 297 293 290 293 293 289 286 286 289 288 289 288 279 272 256 252 257 260 267 262 249 247 241 236 237 241 242 242 239 237 234 237
283 292 295 296 293 290 288 291 292 293 290 286 287 287 283 268 253 245 256 266 276 277 254 261 221 230 234 239 241 241 241 242 244
297 296 298 302 302 301 295 293 294 288 289 290 282 281 280 273 258 250 252 257 267 276 277 276 264 265 222 234 232 237 246 245 242
301 300 301 305 297 294 295 293 297 293 286 284 282 282 281 272 263 255 255 255 256 263 272 283 263 268 271 269 236 228 226 252 246
305 306 308 305 301 299 296 296 290 290 285 280 279 279 278 278 270 255 252 256 258 253 266 262 260 258 244 242 243 237 240 235 236
314 311 310 308 307 304 302 297 290 288 283 278 278 278 273 273 268 267 244 250 257 256 252 261 251 260 279 272 237 233 240 224 223
Height
3169 3168 3169 3171 3170 3171 3170 3172 3172 3173 3174 3174 3173 3173 3173 3174 3174 3174 3175 3176 3177 3180 3183 3185 3186 3189 3192 3195 3197 3198 3198 3198 3199
3169 3171 3174 3173 3172 3172 3171 3171 3172 3172 3172 3173 3173 3173 3173 3173 3173 3173 3173 3174 3177 3178 3179 3179 3182 3189 3189 3190 3194 3197 3198 3198 3199
3166 3169 3170 3171 3173 3175 3173 3172 3170 3170 3171 3172 3172 3172 3172 3172 3172 3171 3172 3173 3175 3177 3178 3179 3183 3181 3189 3188 3191 3196 3197 3197 3198
3165 3167 3168 3169 3171 3173 3175 3174 3172 3169 3169 3170 3170 3170 3170 3170 3170 3169 3168 3170 3173 3175 3176 3174 3175 3169 3182 3180 3188 3193 3196 3196 3196
3162 3163 3165 3166 3168 3168 3168 3169 3171 3168 3166 3166 3167 3167 3167 3167 3168 3167 3166 3167 3170 3172 3173 3172 3171 3176 3178 3178 3185 3190 3192 3192 3192
3160 3161 3162 3163 3164 3165 3164 3164 3164 3165 3164 3162 3162 3162 3163 3164 3164 3164 3164 3164 3166 3167 3169 3171 3171 3171 3174 3179 3183 3186 3188 3188 3188
3159 3159 3159 3159 3159 3159 3161 3161 3161 3161 3160 3158 3159 3159 3158 3158 3160 3161 3161 3161 3163 3163 3165 3167 3171 3173 3176 3177 3180 3181 3181 3182 3183
3156 3156 3156 3155 3155 3155 3155 3156 3156 3155 3155 3155 3154 3154 3154 3156 3154 3156 3156 3157 3157 3160 3161 3162 3164 3167 3171 3172 3173 3174 3176 3177 3177
3151 3150 3151 3152 3151 3151 3150 3150 3150 3150 3149 3148 3147 3147 3148 3148 3149 3149 3151 3153 3153 3153 3156 3157 3158 3160 3163 3166 3167 3168 3169 3171 3173
3149 3147 3145 3146 3146 3144 3142 3143 3142 3142 3142 3142 3141 3140 3141 3142 3142 3142 3144 3147 3147 3148 3150 3151 3152 3154 3155 3157 3161 3162 3163 3165 3168
3146 3143 3141 3140 3138 3136 3134 3133 3132 3133 3133 3133 3133 3133 3133 3133 3134 3135 3137 3140 3140 3141 3143 3144 3145 3146 3148 3150 3153 3157 3158 3159 3162
3141 3139 3138 3134 3132 3129 3125 3123 3121 3120 3122 3123 3123 3123 3123 3123 3124 3126 3127 3129 3131 3132 3134 3135 3137 3140 3141 3143 3146 3150 3152 3153 3155
3135 3133 3131 3128 3124 3120 3118 3116 3113 3111 3110 3111 3112 3112 3112 3112 3114 3116 3117 3119 3121 3123 3127 3127 3130 3133 3135 3137 3139 3142 3145 3146 3148
3129 3126 3124 3121 3117 3113 3110 3108 3104 3102 3100 3099 3100 3099 3099 3101 3102 3106 3107 3107 3110 3114 3117 3117 3121 3124 3127 3130 3132 3135 3136 3138 3139
3122 3119 3116 3113 3109 3106 3102 3099 3096 3094 3091 3089 3087 3087 3087 3087 3090 3093 3093 3095 3097 3099 3105 3101 3110 3112 3117 3120 3122 3126 3128 3130 3131
3113 3110 3107 3104 3100 3095 3092 3089 3087 3082 3081 3080 3077 3077 3076 3075 3078 3080 3080 3081 3081 3080 3073 3045 3086 3097 3105 3109 3111 3116 3119 3122 3123
3105 3101 3097 3093 3088 3084 3082 3080 3077 3073 3070 3069 3068 3066 3067 3065 3068 3071 3071 3072 3072 3068 3066 3070 3039 3053 3086 3096 3097 3102 3108 3113 3115
3095 3091 3088 3083 3078 3075 3072 3070 3067 3063 3060 3058 3057 3056 3056 3057 3058 3061 3063 3064 3065 3063 3063 3059 3056 3055 3071 3084 3088 3091 3089 3104 3107
3087 3082 3079 3074 3070 3066 3063 3059 3056 3053 3051 3048 3047 3046 3046 3047 3048 3050 3052 3055 3058 3060 3058 3060 3060 3064 3071 3067 3071 3078 3078 3087 3099
3079 3075 3071 3067 3062 3056 3052 3048 3044 3042 3041 3039 3037 3037 3037 3039 3039 3040 3042 3045 3049 3051 3053 3051 3053 3056 3054 3052 3055 3059 3059 3082 3082